Year,Month,Day,Hour,Minute,Value (Times are PST for temperature in C)
2008,05,17,00,00,16.70
2008,05,17,00,01,16.70
2008,05,17,00,02,16.70
2008,05,17,00,03,16.70
2008,05,17,00,04,16.70
2008,05,17,00,05,16.70
2008,05,17,00,06,16.70
2008,05,17,00,07,16.70
2008,05,17,00,08,16.70
2008,05,17,00,09,16.60
2008,05,17,00,10,16.60
2008,05,17,00,11,16.60
2008,05,17,00,12,16.60
2008,05,17,00,13,16.60
2008,05,17,00,14,16.60
2008,05,17,00,15,16.70
2008,05,17,00,16,16.70
2008,05,17,00,17,16.70
2008,05,17,00,18,16.70
2008,05,17,00,19,16.70
2008,05,17,00,20,16.80
2008,05,17,00,21,16.90
2008,05,17,00,22,16.90
2008,05,17,00,23,16.90
2008,05,17,00,24,17.00
2008,05,17,00,25,17.00
2008,05,17,00,26,17.10
2008,05,17,00,27,17.10
2008,05,17,00,28,17.10
2008,05,17,00,29,17.20
2008,05,17,00,30,17.30
2008,05,17,00,31,17.30
2008,05,17,00,32,17.30
2008,05,17,00,33,17.30
2008,05,17,00,34,17.30
2008,05,17,00,35,17.30
2008,05,17,00,36,17.30
2008,05,17,00,37,17.30
2008,05,17,00,38,17.30
2008,05,17,00,39,17.30
2008,05,17,00,40,17.30
2008,05,17,00,41,17.30
2008,05,17,00,42,17.20
2008,05,17,00,43,17.20
2008,05,17,00,44,17.20
2008,05,17,00,45,17.20
2008,05,17,00,46,17.20
2008,05,17,00,47,17.20
2008,05,17,00,48,17.20
2008,05,17,00,49,17.10
2008,05,17,00,50,17.10
2008,05,17,00,51,17.00
2008,05,17,00,52,17.00
2008,05,17,00,53,16.90
2008,05,17,00,54,16.90
2008,05,17,00,55,16.80
2008,05,17,00,56,16.80
2008,05,17,00,57,16.70
2008,05,17,00,58,16.70
2008,05,17,00,59,16.70
2008,05,17,01,00,16.70
2008,05,17,01,01,16.70
2008,05,17,01,02,16.70
2008,05,17,01,03,16.70
2008,05,17,01,04,16.70
2008,05,17,01,05,16.70
2008,05,17,01,06,16.70
2008,05,17,01,07,16.70
2008,05,17,01,08,16.70
2008,05,17,01,09,16.70
2008,05,17,01,10,16.70
2008,05,17,01,11,16.80
2008,05,17,01,12,16.80
2008,05,17,01,13,16.80
2008,05,17,01,14,16.80
2008,05,17,01,15,16.80
2008,05,17,01,16,16.80
2008,05,17,01,17,16.80
2008,05,17,01,18,16.80
2008,05,17,01,19,16.80
2008,05,17,01,20,16.80
2008,05,17,01,21,16.80
2008,05,17,01,22,16.80
2008,05,17,01,23,16.90
2008,05,17,01,24,16.90
2008,05,17,01,25,16.90
2008,05,17,01,26,16.90
2008,05,17,01,27,16.90
2008,05,17,01,28,17.00
2008,05,17,01,29,17.00
2008,05,17,01,30,17.00
2008,05,17,01,31,17.00
2008,05,17,01,32,17.00
2008,05,17,01,33,17.00
2008,05,17,01,34,17.00
2008,05,17,01,35,17.20
2008,05,17,01,36,17.30
2008,05,17,01,37,17.30
2008,05,17,01,38,17.30
2008,05,17,01,39,17.30
2008,05,17,01,40,17.30
2008,05,17,01,41,17.30
2008,05,17,01,42,17.40
2008,05,17,01,43,17.40
2008,05,17,01,44,17.50
2008,05,17,01,45,17.50
2008,05,17,01,46,17.50
2008,05,17,01,47,17.60
2008,05,17,01,48,17.60
2008,05,17,01,49,17.60
2008,05,17,01,50,17.50
2008,05,17,01,51,17.50
2008,05,17,01,52,17.50
2008,05,17,01,53,17.50
2008,05,17,01,54,17.50
2008,05,17,01,55,17.50
2008,05,17,01,56,17.50
2008,05,17,01,57,17.50
2008,05,17,01,58,17.50
2008,05,17,01,59,17.50
2008,05,17,02,00,17.50
2008,05,17,02,01,17.50
2008,05,17,02,02,17.50
2008,05,17,02,03,17.60
2008,05,17,02,04,17.60
2008,05,17,02,05,17.60
2008,05,17,02,06,17.50
2008,05,17,02,07,17.50
2008,05,17,02,08,17.60
2008,05,17,02,09,17.60
2008,05,17,02,10,17.60
2008,05,17,02,11,17.60
2008,05,17,02,12,17.60
2008,05,17,02,13,17.60
2008,05,17,02,14,17.60
2008,05,17,02,15,17.60
2008,05,17,02,16,17.60
2008,05,17,02,17,17.60
2008,05,17,02,18,17.60
2008,05,17,02,19,17.60
2008,05,17,02,20,17.50
2008,05,17,02,21,17.50
2008,05,17,02,22,17.50
2008,05,17,02,23,17.40
2008,05,17,02,24,17.40
2008,05,17,02,25,17.40
2008,05,17,02,26,17.40
2008,05,17,02,27,17.30
2008,05,17,02,28,17.40
2008,05,17,02,29,17.40
2008,05,17,02,30,17.40
2008,05,17,02,31,17.40
2008,05,17,02,32,17.40
2008,05,17,02,33,17.40
2008,05,17,02,34,17.40
2008,05,17,02,35,17.30
2008,05,17,02,36,17.30
2008,05,17,02,37,17.30
2008,05,17,02,38,17.30
2008,05,17,02,39,17.20
2008,05,17,02,40,17.20
2008,05,17,02,41,17.20
2008,05,17,02,42,17.20
2008,05,17,02,43,17.20
2008,05,17,02,44,17.20
2008,05,17,02,45,17.20
2008,05,17,02,46,17.20
2008,05,17,02,47,17.20
2008,05,17,02,48,17.20
2008,05,17,02,49,17.10
2008,05,17,02,50,17.10
2008,05,17,02,51,17.00
2008,05,17,02,52,17.00
2008,05,17,02,53,16.90
2008,05,17,02,54,16.80
2008,05,17,02,55,16.80
2008,05,17,02,56,16.70
2008,05,17,02,57,16.70
2008,05,17,02,58,16.70
2008,05,17,02,59,16.70
2008,05,17,03,00,16.70
2008,05,17,03,01,16.70
2008,05,17,03,02,16.70
2008,05,17,03,03,16.70
2008,05,17,03,04,16.70
2008,05,17,03,05,16.70
2008,05,17,03,06,16.70
2008,05,17,03,07,16.70
2008,05,17,03,08,16.70
2008,05,17,03,09,16.70
2008,05,17,03,10,16.70
2008,05,17,03,11,16.70
2008,05,17,03,12,16.70
2008,05,17,03,13,16.60
2008,05,17,03,14,16.60
2008,05,17,03,15,16.60
2008,05,17,03,16,16.50
2008,05,17,03,17,16.40
2008,05,17,03,18,16.40
2008,05,17,03,19,16.40
2008,05,17,03,20,16.40
2008,05,17,03,21,16.40
2008,05,17,03,22,16.40
2008,05,17,03,23,16.40
2008,05,17,03,24,16.40
2008,05,17,03,25,16.40
2008,05,17,03,26,16.40
2008,05,17,03,27,16.60
2008,05,17,03,28,16.60
2008,05,17,03,29,16.60
2008,05,17,03,30,16.60
2008,05,17,03,31,16.70
2008,05,17,03,32,16.70
2008,05,17,03,33,16.70
2008,05,17,03,34,16.60
2008,05,17,03,35,16.60
2008,05,17,03,36,16.60
2008,05,17,03,37,16.50
2008,05,17,03,38,16.40
2008,05,17,03,39,16.40
2008,05,17,03,40,16.40
2008,05,17,03,41,16.40
2008,05,17,03,42,16.40
2008,05,17,03,43,16.40
2008,05,17,03,44,16.40
2008,05,17,03,45,16.40
2008,05,17,03,46,16.40
2008,05,17,03,47,16.40
2008,05,17,03,48,16.40
2008,05,17,03,49,16.40
2008,05,17,03,50,16.40
2008,05,17,03,51,16.40
2008,05,17,03,52,16.40
2008,05,17,03,53,16.40
2008,05,17,03,54,16.40
2008,05,17,03,55,16.40
2008,05,17,03,56,16.40
2008,05,17,03,57,16.40
2008,05,17,03,58,16.40
2008,05,17,03,59,16.30
2008,05,17,04,00,16.30
2008,05,17,04,01,16.30
2008,05,17,04,02,16.30
2008,05,17,04,03,16.30
2008,05,17,04,04,16.30
2008,05,17,04,05,16.30
2008,05,17,04,06,16.20
2008,05,17,04,07,16.20
2008,05,17,04,08,16.20
2008,05,17,04,09,16.20
2008,05,17,04,10,16.20
2008,05,17,04,11,16.20
2008,05,17,04,12,16.10
2008,05,17,04,13,16.10
2008,05,17,04,14,16.10
2008,05,17,04,15,16.10
2008,05,17,04,16,16.00
2008,05,17,04,17,15.90
2008,05,17,04,18,15.90
2008,05,17,04,19,15.90
2008,05,17,04,20,15.90
2008,05,17,04,21,15.90
2008,05,17,04,22,15.90
2008,05,17,04,23,15.90
2008,05,17,04,24,16.00
2008,05,17,04,25,16.10
2008,05,17,04,26,16.20
2008,05,17,04,27,16.20
2008,05,17,04,28,16.30
2008,05,17,04,29,16.20
2008,05,17,04,30,16.10
2008,05,17,04,31,16.00
2008,05,17,04,32,15.80
2008,05,17,04,33,15.50
2008,05,17,04,34,15.30
2008,05,17,04,35,15.10
2008,05,17,04,36,14.90
2008,05,17,04,37,14.70
2008,05,17,04,38,14.60
2008,05,17,04,39,14.60
2008,05,17,04,40,14.50
2008,05,17,04,41,14.40
2008,05,17,04,42,14.20
2008,05,17,04,43,13.90
2008,05,17,04,44,13.70
2008,05,17,04,45,13.60
2008,05,17,04,46,13.40
2008,05,17,04,47,13.30
2008,05,17,04,48,13.30
2008,05,17,04,49,13.20
2008,05,17,04,50,13.10
2008,05,17,04,51,13.10
2008,05,17,04,52,13.10
2008,05,17,04,53,13.00
2008,05,17,04,54,13.00
2008,05,17,04,55,12.90
2008,05,17,04,56,12.90
2008,05,17,04,57,12.80
2008,05,17,04,58,12.80
2008,05,17,04,59,12.80
2008,05,17,05,00,12.80
2008,05,17,05,01,12.80
2008,05,17,05,02,12.80
2008,05,17,05,03,12.70
2008,05,17,05,04,12.70
2008,05,17,05,05,12.70
2008,05,17,05,06,12.60
2008,05,17,05,07,12.60
2008,05,17,05,08,12.60
2008,05,17,05,09,12.60
2008,05,17,05,10,12.60
2008,05,17,05,11,12.60
2008,05,17,05,12,12.60
2008,05,17,05,13,12.60
2008,05,17,05,14,12.70
2008,05,17,05,15,12.70
2008,05,17,05,16,12.70
2008,05,17,05,17,12.80
2008,05,17,05,18,12.80
2008,05,17,05,19,12.80
2008,05,17,05,20,12.80
2008,05,17,05,21,12.80
2008,05,17,05,22,12.80
2008,05,17,05,23,12.80
2008,05,17,05,24,12.80
2008,05,17,05,25,12.70
2008,05,17,05,26,12.70
2008,05,17,05,27,12.70
2008,05,17,05,28,12.60
2008,05,17,05,29,12.60
2008,05,17,05,30,12.50
2008,05,17,05,31,12.50
2008,05,17,05,32,12.50
2008,05,17,05,33,12.40
2008,05,17,05,34,12.40
2008,05,17,05,35,12.30
2008,05,17,05,36,12.30
2008,05,17,05,37,12.30
2008,05,17,05,38,12.30
2008,05,17,05,39,12.30
2008,05,17,05,40,12.30
2008,05,17,05,41,12.30
2008,05,17,05,42,12.30
2008,05,17,05,43,12.30
2008,05,17,05,44,12.30
2008,05,17,05,45,12.30
2008,05,17,05,46,12.30
2008,05,17,05,47,12.30
2008,05,17,05,48,12.30
2008,05,17,05,49,12.30
2008,05,17,05,50,12.30
2008,05,17,05,51,12.20
2008,05,17,05,52,12.20
2008,05,17,05,53,12.30
2008,05,17,05,54,12.30
2008,05,17,05,55,12.30
2008,05,17,05,56,12.30
2008,05,17,05,57,12.30
2008,05,17,05,58,12.30
2008,05,17,05,59,12.30
2008,05,17,06,00,12.30
2008,05,17,06,01,12.40
2008,05,17,06,02,12.40
2008,05,17,06,03,12.50
2008,05,17,06,04,12.60
2008,05,17,06,05,12.60
2008,05,17,06,06,12.80
2008,05,17,06,07,12.90
2008,05,17,06,08,13.00
2008,05,17,06,09,13.20
2008,05,17,06,10,13.40
2008,05,17,06,11,13.60
2008,05,17,06,12,13.80
2008,05,17,06,13,14.00
2008,05,17,06,14,14.20
2008,05,17,06,15,14.50
2008,05,17,06,16,14.60
2008,05,17,06,17,14.80
2008,05,17,06,18,14.80
2008,05,17,06,19,14.80
2008,05,17,06,20,14.80
2008,05,17,06,21,14.90
2008,05,17,06,22,14.90
2008,05,17,06,23,15.00
2008,05,17,06,24,15.10
2008,05,17,06,25,15.20
2008,05,17,06,26,15.30
2008,05,17,06,27,15.30
2008,05,17,06,28,15.40
2008,05,17,06,29,15.50
2008,05,17,06,30,15.50
2008,05,17,06,31,15.60
2008,05,17,06,32,15.60
2008,05,17,06,33,15.60
2008,05,17,06,34,15.70
2008,05,17,06,35,15.70
2008,05,17,06,36,15.80
2008,05,17,06,37,15.90
2008,05,17,06,38,16.00
2008,05,17,06,39,16.10
2008,05,17,06,40,16.10
2008,05,17,06,41,16.20
2008,05,17,06,42,16.30
2008,05,17,06,43,16.30
2008,05,17,06,44,16.40
2008,05,17,06,45,16.40
2008,05,17,06,46,16.50
2008,05,17,06,47,16.60
2008,05,17,06,48,16.60
2008,05,17,06,49,16.70
2008,05,17,06,50,16.70
2008,05,17,06,51,16.70
2008,05,17,06,52,16.70
2008,05,17,06,53,16.70
2008,05,17,06,54,16.70
2008,05,17,06,55,16.80
2008,05,17,06,56,16.80
2008,05,17,06,57,16.80
2008,05,17,06,58,16.80
2008,05,17,06,59,16.80
2008,05,17,07,00,16.80
2008,05,17,07,01,16.80
2008,05,17,07,02,16.80
2008,05,17,07,03,16.90
2008,05,17,07,04,16.90
2008,05,17,07,05,16.90
2008,05,17,07,06,17.00
2008,05,17,07,07,17.00
2008,05,17,07,08,17.10
2008,05,17,07,09,17.20
2008,05,17,07,10,17.30
2008,05,17,07,11,17.30
2008,05,17,07,12,17.30
2008,05,17,07,13,17.30
2008,05,17,07,14,17.20
2008,05,17,07,15,17.20
2008,05,17,07,16,17.10
2008,05,17,07,17,17.10
2008,05,17,07,18,17.10
2008,05,17,07,19,17.00
2008,05,17,07,20,17.00
2008,05,17,07,21,16.90
2008,05,17,07,22,16.90
2008,05,17,07,23,16.70
2008,05,17,07,24,16.60
2008,05,17,07,25,16.40
2008,05,17,07,26,16.30
2008,05,17,07,27,16.10
2008,05,17,07,28,16.00
2008,05,17,07,29,15.90
2008,05,17,07,30,15.80
2008,05,17,07,31,15.80
2008,05,17,07,32,15.70
2008,05,17,07,33,15.60
2008,05,17,07,34,15.60
2008,05,17,07,35,15.50
2008,05,17,07,36,15.30
2008,05,17,07,37,15.10
2008,05,17,07,38,15.00
2008,05,17,07,39,14.90
2008,05,17,07,40,14.80
2008,05,17,07,41,14.80
2008,05,17,07,42,14.80
2008,05,17,07,43,14.70
2008,05,17,07,44,14.60
2008,05,17,07,45,14.60
2008,05,17,07,46,14.60
2008,05,17,07,47,14.60
2008,05,17,07,48,14.60
2008,05,17,07,49,14.70
2008,05,17,07,50,14.70
2008,05,17,07,51,14.80
2008,05,17,07,52,14.80
2008,05,17,07,53,14.80
2008,05,17,07,54,14.90
2008,05,17,07,55,14.90
2008,05,17,07,56,14.90
2008,05,17,07,57,14.90
2008,05,17,07,58,14.90
2008,05,17,07,59,15.00
2008,05,17,08,00,14.90
2008,05,17,08,01,14.90
2008,05,17,08,02,14.90
2008,05,17,08,03,14.90
2008,05,17,08,04,14.90
2008,05,17,08,05,14.90
2008,05,17,08,06,14.80
2008,05,17,08,07,14.80
2008,05,17,08,08,14.80
2008,05,17,08,09,14.80
2008,05,17,08,10,14.80
2008,05,17,08,11,14.90
2008,05,17,08,12,14.90
2008,05,17,08,13,15.00
2008,05,17,08,14,15.10
2008,05,17,08,15,15.20
2008,05,17,08,16,15.20
2008,05,17,08,17,15.30
2008,05,17,08,18,15.40
2008,05,17,08,19,15.50
2008,05,17,08,20,15.60
2008,05,17,08,21,15.70
2008,05,17,08,22,15.80
2008,05,17,08,23,15.90
2008,05,17,08,24,16.00
2008,05,17,08,25,16.10
2008,05,17,08,26,16.10
2008,05,17,08,27,16.10
2008,05,17,08,28,16.10
2008,05,17,08,29,16.30
2008,05,17,08,30,16.50
2008,05,17,08,31,16.70
2008,05,17,08,32,16.80
2008,05,17,08,33,16.90
2008,05,17,08,34,17.10
2008,05,17,08,35,17.20
2008,05,17,08,36,17.30
2008,05,17,08,37,17.30
2008,05,17,08,38,17.30
2008,05,17,08,39,17.30
2008,05,17,08,40,17.20
2008,05,17,08,41,17.20
2008,05,17,08,42,17.20
2008,05,17,08,43,17.20
2008,05,17,08,44,17.20
2008,05,17,08,45,17.20
2008,05,17,08,46,17.30
2008,05,17,08,47,17.30
2008,05,17,08,48,17.40
2008,05,17,08,49,17.60
2008,05,17,08,50,17.80
2008,05,17,08,51,17.90
2008,05,17,08,52,18.00
2008,05,17,08,53,18.10
2008,05,17,08,54,18.20
2008,05,17,08,55,18.20
2008,05,17,08,56,18.30
2008,05,17,08,57,18.40
2008,05,17,08,58,18.50
2008,05,17,08,59,18.50
2008,05,17,09,00,18.50
2008,05,17,09,01,18.50
2008,05,17,09,02,18.50
2008,05,17,09,03,18.60
2008,05,17,09,04,18.60
2008,05,17,09,05,18.70
2008,05,17,09,06,18.70
2008,05,17,09,07,18.80
2008,05,17,09,08,18.90
2008,05,17,09,09,19.00
2008,05,17,09,10,19.10
2008,05,17,09,11,19.20
2008,05,17,09,12,19.30
2008,05,17,09,13,19.40
2008,05,17,09,14,19.50
2008,05,17,09,15,19.50
2008,05,17,09,16,19.60
2008,05,17,09,17,19.70
2008,05,17,09,18,19.70
2008,05,17,09,19,19.60
2008,05,17,09,20,19.40
2008,05,17,09,21,19.20
2008,05,17,09,22,19.00
2008,05,17,09,23,18.80
2008,05,17,09,24,18.60
2008,05,17,09,25,18.50
2008,05,17,09,26,18.50
2008,05,17,09,27,18.50
2008,05,17,09,28,18.60
2008,05,17,09,29,18.60
2008,05,17,09,30,18.60
2008,05,17,09,31,18.60
2008,05,17,09,32,18.70
2008,05,17,09,33,18.60
2008,05,17,09,34,18.60
2008,05,17,09,35,18.60
2008,05,17,09,36,18.60
2008,05,17,09,37,18.60
2008,05,17,09,38,18.50
2008,05,17,09,39,18.40
2008,05,17,09,40,18.40
2008,05,17,09,41,18.20
2008,05,17,09,42,18.10
2008,05,17,09,43,18.00
2008,05,17,09,44,17.90
2008,05,17,09,45,17.70
2008,05,17,09,46,17.50
2008,05,17,09,47,17.40
2008,05,17,09,48,17.20
2008,05,17,09,49,17.10
2008,05,17,09,50,17.00
2008,05,17,09,51,16.80
2008,05,17,09,52,16.40
2008,05,17,09,53,16.00
2008,05,17,09,54,15.80
2008,05,17,09,55,15.60
2008,05,17,09,56,15.50
2008,05,17,09,57,15.40
2008,05,17,09,58,15.40
2008,05,17,09,59,15.50
2008,05,17,10,00,15.50
2008,05,17,10,01,15.60
2008,05,17,10,02,15.70
2008,05,17,10,03,15.70
2008,05,17,10,04,15.60
2008,05,17,10,05,15.50
2008,05,17,10,06,15.40
2008,05,17,10,07,15.40
2008,05,17,10,08,15.50
2008,05,17,10,09,15.50
2008,05,17,10,10,15.50
2008,05,17,10,11,15.50
2008,05,17,10,12,15.50
2008,05,17,10,13,15.50
2008,05,17,10,14,15.40
2008,05,17,10,15,15.40
2008,05,17,10,16,15.40
2008,05,17,10,17,15.50
2008,05,17,10,18,15.60
2008,05,17,10,19,15.70
2008,05,17,10,20,15.80
2008,05,17,10,21,15.80
2008,05,17,10,22,15.90
2008,05,17,10,23,15.90
2008,05,17,10,24,16.00
2008,05,17,10,25,16.10
2008,05,17,10,26,16.20
2008,05,17,10,27,16.20
2008,05,17,10,28,16.20
2008,05,17,10,29,16.10
2008,05,17,10,30,16.10
2008,05,17,10,31,16.10
2008,05,17,10,32,16.10
2008,05,17,10,33,16.10
2008,05,17,10,34,16.10
2008,05,17,10,35,16.10
2008,05,17,10,36,16.10
2008,05,17,10,37,16.10
2008,05,17,10,38,16.10
2008,05,17,10,39,16.10
2008,05,17,10,40,16.20
2008,05,17,10,41,16.10
2008,05,17,10,42,16.00
2008,05,17,10,43,15.90
2008,05,17,10,44,15.80
2008,05,17,10,45,15.80
2008,05,17,10,46,15.70
2008,05,17,10,47,15.60
2008,05,17,10,48,15.60
2008,05,17,10,49,15.70
2008,05,17,10,50,15.70
2008,05,17,10,51,15.80
2008,05,17,10,52,15.80
2008,05,17,10,53,15.80
2008,05,17,10,54,15.80
2008,05,17,10,55,15.90
2008,05,17,10,56,16.00
2008,05,17,10,57,16.10
2008,05,17,10,58,16.10
2008,05,17,10,59,16.10
2008,05,17,11,00,16.10
2008,05,17,11,01,16.00
2008,05,17,11,02,15.90
2008,05,17,11,03,15.80
2008,05,17,11,04,15.70
2008,05,17,11,05,15.70
2008,05,17,11,06,15.60
2008,05,17,11,07,15.50
2008,05,17,11,08,15.40
2008,05,17,11,09,15.40
2008,05,17,11,10,15.30
2008,05,17,11,11,15.10
2008,05,17,11,12,15.00
2008,05,17,11,13,14.90
2008,05,17,11,14,14.80
2008,05,17,11,15,14.80
2008,05,17,11,16,14.80
2008,05,17,11,17,14.70
2008,05,17,11,18,14.80
2008,05,17,11,19,14.80
2008,05,17,11,20,14.80
2008,05,17,11,21,14.80
2008,05,17,11,22,14.90
2008,05,17,11,23,15.00
2008,05,17,11,24,15.10
2008,05,17,11,25,15.20
2008,05,17,11,26,15.30
2008,05,17,11,27,15.40
2008,05,17,11,28,15.50
2008,05,17,11,29,15.60
2008,05,17,11,30,15.60
2008,05,17,11,31,15.70
2008,05,17,11,32,15.70
2008,05,17,11,33,15.70
2008,05,17,11,34,15.60
2008,05,17,11,35,15.70
2008,05,17,11,36,15.80
2008,05,17,11,37,15.80
2008,05,17,11,38,15.90
2008,05,17,11,39,15.90
2008,05,17,11,40,15.90
2008,05,17,11,41,15.90
2008,05,17,11,42,15.90
2008,05,17,11,43,15.90
2008,05,17,11,44,16.00
2008,05,17,11,45,16.10
2008,05,17,11,46,16.20
2008,05,17,11,47,16.20
2008,05,17,11,48,16.20
2008,05,17,11,49,16.30
2008,05,17,11,50,16.30
2008,05,17,11,51,16.30
2008,05,17,11,52,16.20
2008,05,17,11,53,16.10
2008,05,17,11,54,16.10
2008,05,17,11,55,16.10
2008,05,17,11,56,16.10
2008,05,17,11,57,16.10
2008,05,17,11,58,16.10
2008,05,17,11,59,16.10
2008,05,17,12,00,16.20
2008,05,17,12,01,16.30
2008,05,17,12,02,16.50
2008,05,17,12,03,16.60
2008,05,17,12,04,16.70
2008,05,17,12,05,16.80
2008,05,17,12,06,16.90
2008,05,17,12,07,17.00
2008,05,17,12,08,17.20
2008,05,17,12,09,17.30
2008,05,17,12,10,17.30
2008,05,17,12,11,17.40
2008,05,17,12,12,17.60
2008,05,17,12,13,17.80
2008,05,17,12,14,17.90
2008,05,17,12,15,17.90
2008,05,17,12,16,18.10
2008,05,17,12,17,18.00
2008,05,17,12,18,17.90
2008,05,17,12,19,17.90
2008,05,17,12,20,17.90
2008,05,17,12,21,17.90
2008,05,17,12,22,17.90
2008,05,17,12,23,17.90
2008,05,17,12,24,17.70
2008,05,17,12,25,17.60
2008,05,17,12,26,17.50
2008,05,17,12,27,17.60
2008,05,17,12,28,17.70
2008,05,17,12,29,17.80
2008,05,17,12,30,18.00
2008,05,17,12,31,18.10
2008,05,17,12,32,18.30
2008,05,17,12,33,18.50
2008,05,17,12,34,18.50
2008,05,17,12,35,18.40
2008,05,17,12,36,18.50
2008,05,17,12,37,18.40
2008,05,17,12,38,18.30
2008,05,17,12,39,18.30
2008,05,17,12,40,18.30
2008,05,17,12,41,18.40
2008,05,17,12,42,18.40
2008,05,17,12,43,18.40
2008,05,17,12,44,18.50
2008,05,17,12,45,18.50
2008,05,17,12,46,18.50
2008,05,17,12,47,18.60
2008,05,17,12,48,18.60
2008,05,17,12,49,18.70
2008,05,17,12,50,18.70
2008,05,17,12,51,18.80
2008,05,17,12,52,18.90
2008,05,17,12,53,19.10
2008,05,17,12,54,19.10
2008,05,17,12,55,19.10
2008,05,17,12,56,19.00
2008,05,17,12,57,18.80
2008,05,17,12,58,18.60
2008,05,17,12,59,18.50
2008,05,17,13,00,18.40
2008,05,17,13,01,18.30
2008,05,17,13,02,18.20
2008,05,17,13,03,18.20
2008,05,17,13,04,18.20
2008,05,17,13,05,18.20
2008,05,17,13,06,18.20
2008,05,17,13,07,18.10
2008,05,17,13,08,18.10
2008,05,17,13,09,18.20
2008,05,17,13,10,18.20
2008,05,17,13,11,18.20
2008,05,17,13,12,18.20
2008,05,17,13,13,18.30
2008,05,17,13,14,18.40
2008,05,17,13,15,18.50
2008,05,17,13,16,18.60
2008,05,17,13,17,18.70
2008,05,17,13,18,18.90
2008,05,17,13,19,19.10
2008,05,17,13,20,19.20
2008,05,17,13,21,19.30
2008,05,17,13,22,19.30
2008,05,17,13,23,19.40
2008,05,17,13,24,19.40
2008,05,17,13,25,19.40
2008,05,17,13,26,19.40
2008,05,17,13,27,19.50
2008,05,17,13,28,19.60
2008,05,17,13,29,19.70
2008,05,17,13,30,19.90
2008,05,17,13,31,20.00
2008,05,17,13,32,20.10
2008,05,17,13,33,20.20
2008,05,17,13,34,20.20
2008,05,17,13,35,20.20
2008,05,17,13,36,20.30
2008,05,17,13,37,20.30
2008,05,17,13,38,20.50
2008,05,17,13,39,20.50
2008,05,17,13,40,20.50
2008,05,17,13,41,20.50
2008,05,17,13,42,20.50
2008,05,17,13,43,20.60
2008,05,17,13,44,20.50
2008,05,17,13,45,20.50
2008,05,17,13,46,20.40
2008,05,17,13,47,20.30
2008,05,17,13,48,20.20
2008,05,17,13,49,20.00
2008,05,17,13,50,19.90
2008,05,17,13,51,19.80
2008,05,17,13,52,19.70
2008,05,17,13,53,19.70
2008,05,17,13,54,19.70
2008,05,17,13,55,19.70
2008,05,17,13,56,19.70
2008,05,17,13,57,19.70
2008,05,17,13,58,19.70
2008,05,17,13,59,19.70
2008,05,17,14,00,19.50
2008,05,17,14,01,19.20
2008,05,17,14,02,18.80
2008,05,17,14,03,18.60
2008,05,17,14,04,18.40
2008,05,17,14,05,18.30
2008,05,17,14,06,18.20
2008,05,17,14,07,18.20
2008,05,17,14,08,18.20
2008,05,17,14,09,18.10
2008,05,17,14,10,17.90
2008,05,17,14,11,17.90
2008,05,17,14,12,17.90
2008,05,17,14,13,18.00
2008,05,17,14,14,18.00
2008,05,17,14,15,17.90
2008,05,17,14,16,17.90
2008,05,17,14,17,17.90
2008,05,17,14,18,17.80
2008,05,17,14,19,17.90
2008,05,17,14,20,18.10
2008,05,17,14,21,18.30
2008,05,17,14,22,18.30
2008,05,17,14,23,18.30
2008,05,17,14,24,18.30
2008,05,17,14,25,18.30
2008,05,17,14,26,18.40
2008,05,17,14,27,18.40
2008,05,17,14,28,18.30
2008,05,17,14,29,18.30
2008,05,17,14,30,18.40
2008,05,17,14,31,18.60
2008,05,17,14,32,18.70
2008,05,17,14,33,18.80
2008,05,17,14,34,18.80
2008,05,17,14,35,18.80
2008,05,17,14,36,18.90
2008,05,17,14,37,19.00
2008,05,17,14,38,19.10
2008,05,17,14,39,19.20
2008,05,17,14,40,19.40
2008,05,17,14,41,19.50
2008,05,17,14,42,19.40
2008,05,17,14,43,19.40
2008,05,17,14,44,19.30
2008,05,17,14,45,19.10
2008,05,17,14,46,19.00
2008,05,17,14,47,18.80
2008,05,17,14,48,18.40
2008,05,17,14,49,18.20
2008,05,17,14,50,17.90
2008,05,17,14,51,17.50
2008,05,17,14,52,17.10
2008,05,17,14,53,17.00
2008,05,17,14,54,16.80
2008,05,17,14,55,16.80
2008,05,17,14,56,16.80
2008,05,17,14,57,16.90
2008,05,17,14,58,16.90
2008,05,17,14,59,17.00
2008,05,17,15,00,17.10
2008,05,17,15,01,17.20
2008,05,17,15,02,17.40
2008,05,17,15,03,17.40
2008,05,17,15,04,17.40
2008,05,17,15,05,17.50
2008,05,17,15,06,17.50
2008,05,17,15,07,17.40
2008,05,17,15,08,17.20
2008,05,17,15,09,16.90
2008,05,17,15,10,16.50
2008,05,17,15,11,16.20
2008,05,17,15,12,15.90
2008,05,17,15,13,15.70
2008,05,17,15,14,15.40
2008,05,17,15,15,15.30
2008,05,17,15,16,15.00
2008,05,17,15,17,14.70
2008,05,17,15,18,14.60
2008,05,17,15,19,14.30
2008,05,17,15,20,14.10
2008,05,17,15,21,14.10
2008,05,17,15,22,14.00
2008,05,17,15,23,13.90
2008,05,17,15,24,13.80
2008,05,17,15,25,13.70
2008,05,17,15,26,13.70
2008,05,17,15,27,13.90
2008,05,17,15,28,14.10
2008,05,17,15,29,14.20
2008,05,17,15,30,14.40
2008,05,17,15,31,14.60
2008,05,17,15,32,14.80
2008,05,17,15,33,14.80
2008,05,17,15,34,14.80
2008,05,17,15,35,14.90
2008,05,17,15,36,15.00
2008,05,17,15,37,15.10
2008,05,17,15,38,15.30
2008,05,17,15,39,15.30
2008,05,17,15,40,15.30
2008,05,17,15,41,15.30
2008,05,17,15,42,15.40
2008,05,17,15,43,15.50
2008,05,17,15,44,15.70
2008,05,17,15,45,15.90
2008,05,17,15,46,16.10
2008,05,17,15,47,16.30
2008,05,17,15,48,16.30
2008,05,17,15,49,16.30
2008,05,17,15,50,16.30
2008,05,17,15,51,16.20
2008,05,17,15,52,16.20
2008,05,17,15,53,16.30
2008,05,17,15,54,16.40
2008,05,17,15,55,16.40
2008,05,17,15,56,16.50
2008,05,17,15,57,16.60
2008,05,17,15,58,16.70
2008,05,17,15,59,16.80
2008,05,17,16,00,16.90
2008,05,17,16,01,17.10
2008,05,17,16,02,17.30
2008,05,17,16,03,17.40
2008,05,17,16,04,17.50
2008,05,17,16,05,17.50
2008,05,17,16,06,17.70
2008,05,17,16,07,17.70
2008,05,17,16,08,17.50
2008,05,17,16,09,17.50
2008,05,17,16,10,17.50
2008,05,17,16,11,17.30
2008,05,17,16,12,17.30
2008,05,17,16,13,17.20
2008,05,17,16,14,17.10
2008,05,17,16,15,17.00
2008,05,17,16,16,16.90
2008,05,17,16,17,16.90
2008,05,17,16,18,17.00
2008,05,17,16,19,17.10
2008,05,17,16,20,17.10
2008,05,17,16,21,17.20
2008,05,17,16,22,17.30
2008,05,17,16,23,17.30
2008,05,17,16,24,17.30
2008,05,17,16,25,17.40
2008,05,17,16,26,17.50
2008,05,17,16,27,17.50
2008,05,17,16,28,17.50
2008,05,17,16,29,17.50
2008,05,17,16,30,17.60
2008,05,17,16,31,17.60
2008,05,17,16,32,17.60
2008,05,17,16,33,17.60
2008,05,17,16,34,17.60
2008,05,17,16,35,17.60
2008,05,17,16,36,17.60
2008,05,17,16,37,17.50
2008,05,17,16,38,17.30
2008,05,17,16,39,17.30
2008,05,17,16,40,17.10
2008,05,17,16,41,17.00
2008,05,17,16,42,17.00
2008,05,17,16,43,17.00
2008,05,17,16,44,16.90
2008,05,17,16,45,17.00
2008,05,17,16,46,17.00
2008,05,17,16,47,16.90
2008,05,17,16,48,16.90
2008,05,17,16,49,17.00
2008,05,17,16,50,17.10
2008,05,17,16,51,17.30
2008,05,17,16,52,17.40
2008,05,17,16,53,17.50
2008,05,17,16,54,17.70
2008,05,17,16,55,17.80
2008,05,17,16,56,17.80
2008,05,17,16,57,17.80
2008,05,17,16,58,17.80
2008,05,17,16,59,17.90
2008,05,17,17,00,17.90
2008,05,17,17,01,18.00
2008,05,17,17,02,18.10
2008,05,17,17,03,18.20
2008,05,17,17,04,18.20
2008,05,17,17,05,18.20
2008,05,17,17,06,18.20
2008,05,17,17,07,18.20
2008,05,17,17,08,18.20
2008,05,17,17,09,18.20
2008,05,17,17,10,18.20
2008,05,17,17,11,18.10
2008,05,17,17,12,18.10
2008,05,17,17,13,18.10
2008,05,17,17,14,18.20
2008,05,17,17,15,18.30
2008,05,17,17,16,18.40
2008,05,17,17,17,18.60
2008,05,17,17,18,18.70
2008,05,17,17,19,18.80